Notices

What's New in latest Release from April 7th, 2021:

- Updated Glossary, including Speed of Maximum Gust, and Total Hourly Precipitation

- Updated national and regional climate services offices contacts and prices information

- Addition of station inventory lists for 1981-2010, 1971-2000, and 1961-1990 Normals.

If you haven't already, please take our survey and provide feedback about our website: https://eccc.sondage-survey.ca/f/LanguageSelection.aspx?s=442ca660-fcf1-47c0-95a9-59707d6fd709

Hourly Data Report for January 14, 2020

SATURNA ISLAND CS
BRITISH COLUMBIA
Current Station Operator: ECCC - MSC

48°47'02.067" N
123°02'41.082" W
24.40 m
1017101
71473
WEZ

Download Data

Hourly Data (January 2020)
Hourly Data Report for January 14, 2020
TIME
LST
Temp Definition
°C
Dew Point Definition
°C
Rel Hum Definition
%
Precip. Amount Definition
mm

Wind Dir Definition
10's deg

Wind Spd Definition
km/h
Visibility Definition
km
Stn Press Definition
kPa
Hmdx Definition


Wind Chill Definition


Weather Definition


00:00 -5.5 -9.2 75   6 40   100.85   -15 LegendNANA
01:00 -5.8 -9.1 77   6 40   100.82   -15 LegendNANA
02:00 -6.1 -9.5 77   6 39   100.85   -15 LegendNANA
03:00 -6.0 -9.4 77   6 37   100.88   -15 LegendNANA
04:00 -5.8 -9.4 75   6 39   100.83   -15 LegendNANA
05:00 -5.3 -8.9 75   6 37   100.83   -14 LegendNANA
06:00 -5.9 -9.5 76   8 34   100.84   -15 LegendNANA
07:00 -6.0 -9.2 78   7 36   100.89   -15 LegendNANA
08:00 -5.9 -9.2 77   7 41   100.91   -15 LegendNANA
09:00 -6.0 -9.0 79   7 40   100.98   -15 LegendNANA
10:00 -5.6 -8.0 83   7 45   101.05   -15 LegendNANA
11:00 -5.9 -7.9 86   8 42   101.12   -15 LegendNANA
12:00 -5.5 -7.5 86   8 39   101.11   -15 LegendNANA
13:00 -5.0 -7.0 86   8 34   101.09   -13 LegendNANA
14:00 -5.1 -7.5 83   9 27   101.16   -13 LegendNANA
15:00 -5.1 -8.0 80   7 28   101.23   -13 LegendNANA
16:00 -5.0 -6.8 87   9 26   101.26   -12 LegendNANA
17:00 -5.2 -6.5 90   9 31   101.28   -13 LegendNANA
18:00 -5.3 -6.3 93   9 32   101.27   -14 LegendNANA
19:00 -5.0 -5.6 95   8 36   101.25   -14 LegendNANA
20:00 -4.8 -5.4 96   8 40   101.21   -14 LegendNANA
21:00 -5.1 -5.7 96   7 41   101.20   -14 LegendNANA
22:00 -5.0 -5.5 96   7 44   101.17   -14 LegendNANA
23:00 -5.6 -6.3 95   6 39   101.17   -15 LegendNANA

Notes on Data Quality.

Legend

  • E = Estimated
  • M = Missing
  • NA = Not Available*
  • [empty] = Indicates an unobserved value
Date modified: